Starlink 32212

operational
NORAD ID: 60256 Int'l Des: 2024-131 Owner: SPXS Country: US Constellation: starlink
LEOCIRCULAR

About Starlink 32212

Description loading...

Live Position

Loading 3D Globe...

Upcoming Passes

Altitude History

Altitude vs Time

uPlot chart will show altitude changes over time

Two-Line Element Set

1 60256U 24131B 25304.29322596 -.00001075 00000-0 -24187-4 0 9993
2 60256 53.1610 293.7483 0001288 94.1403 265.9745 15.30187242 71901
Epoch: Oct 31, 2025 • Age: 7 hours

Current Status

Altitude 478.7 km
Velocity 7.63 km/s
Sub-Earth Point 42.68°N, 92.4°E
Launch Date Jul 27, 2024
Age 1.2 years
Type internet

Technical Details

Classification Payload
Mass 730.00 kg
Dry Mass 700.00 kg
Total Mass 730.00 kg
Length 0.30 m
Diameter 4.10 m
Span 29.00 m
Shape Box + pan
Manufacturer SPXS
Bus Type Starlink V2M
Phase Status In Orbit
Owner/State SPXS/US

Large Constellations

Loading constellations...